Location: ČR
(50.0000°N, 15.0000°E)
Time: 07:47:15
(UTC+02:00)

A-11 Canister half - Pass Details

Date: 22 March 2026
Orbit: 1514 x 1685 km, 47.2° (Epoch: 18 April)

Event Time Altitude Azimuth Distance (km) Brightness Sun altitude
Rises 11:16:04 0° 207° (SSW) 4,766 12.1 39.5°
Reaches altitude 10° 11:19:29 10° 198° (SSW) 3,809 11.9 39.7°
Maximum altitude 11:27:51 34° 138° (SE) 2,460 11.6 40.0°
Drops below altitude 10° 11:36:27 10° 79° (E) 3,927 11.2 40.3°
Sets 11:40:00 0° 71° (ENE) 4,931 11.6 40.4°
